Year,Month,Day,Hour,Minute,Value (Times are PST for temperature in C)
2009,10,12,00,00,2.40
2009,10,12,00,01,2.40
2009,10,12,00,02,2.40
2009,10,12,00,03,2.30
2009,10,12,00,04,2.30
2009,10,12,00,05,2.30
2009,10,12,00,06,2.30
2009,10,12,00,07,2.30
2009,10,12,00,08,2.30
2009,10,12,00,09,2.30
2009,10,12,00,10,2.30
2009,10,12,00,11,2.30
2009,10,12,00,12,2.30
2009,10,12,00,13,2.20
2009,10,12,00,14,2.20
2009,10,12,00,15,2.20
2009,10,12,00,16,2.20
2009,10,12,00,17,2.10
2009,10,12,00,18,2.20
2009,10,12,00,19,2.20
2009,10,12,00,20,2.20
2009,10,12,00,21,2.20
2009,10,12,00,22,2.20
2009,10,12,00,23,2.20
2009,10,12,00,24,2.20
2009,10,12,00,25,2.20
2009,10,12,00,26,2.20
2009,10,12,00,27,2.20
2009,10,12,00,28,2.20
2009,10,12,00,29,2.20
2009,10,12,00,30,2.20
2009,10,12,00,31,2.20
2009,10,12,00,32,2.10
2009,10,12,00,33,2.10
2009,10,12,00,34,2.10
2009,10,12,00,35,2.10
2009,10,12,00,36,2.10
2009,10,12,00,37,2.00
2009,10,12,00,38,2.00
2009,10,12,00,39,2.00
2009,10,12,00,40,1.90
2009,10,12,00,41,1.90
2009,10,12,00,42,1.90
2009,10,12,00,43,1.80
2009,10,12,00,44,1.80
2009,10,12,00,45,1.80
2009,10,12,00,46,1.80
2009,10,12,00,47,1.70
2009,10,12,00,48,1.70
2009,10,12,00,49,1.70
2009,10,12,00,50,1.60
2009,10,12,00,51,1.60
2009,10,12,00,52,1.60
2009,10,12,00,53,1.50
2009,10,12,00,54,1.50
2009,10,12,00,55,1.50
2009,10,12,00,56,1.50
2009,10,12,00,57,1.60
2009,10,12,00,58,1.60
2009,10,12,00,59,1.60
2009,10,12,01,00,1.60
2009,10,12,01,01,1.60
2009,10,12,01,02,1.60
2009,10,12,01,03,1.60
2009,10,12,01,04,1.60
2009,10,12,01,05,1.70
2009,10,12,01,06,1.70
2009,10,12,01,07,1.70
2009,10,12,01,08,1.70
2009,10,12,01,09,1.70
2009,10,12,01,10,1.70
2009,10,12,01,11,1.70
2009,10,12,01,12,1.70
2009,10,12,01,13,1.70
2009,10,12,01,14,1.70
2009,10,12,01,15,1.70
2009,10,12,01,16,1.70
2009,10,12,01,17,1.70
2009,10,12,01,18,1.60
2009,10,12,01,19,1.60
2009,10,12,01,20,1.60
2009,10,12,01,21,1.60
2009,10,12,01,22,1.50
2009,10,12,01,23,1.50
2009,10,12,01,24,1.50
2009,10,12,01,25,1.40
2009,10,12,01,26,1.40
2009,10,12,01,27,1.40
2009,10,12,01,28,1.40
2009,10,12,01,29,1.40
2009,10,12,01,30,1.40
2009,10,12,01,31,1.40
2009,10,12,01,32,1.40
2009,10,12,01,33,1.30
2009,10,12,01,34,1.30
2009,10,12,01,35,1.30
2009,10,12,01,36,1.30
2009,10,12,01,37,1.30
2009,10,12,01,38,1.30
2009,10,12,01,39,1.30
2009,10,12,01,40,1.30
2009,10,12,01,41,1.30
2009,10,12,01,42,1.30
2009,10,12,01,43,1.30
2009,10,12,01,44,1.30
2009,10,12,01,45,1.20
2009,10,12,01,46,1.20
2009,10,12,01,47,1.20
2009,10,12,01,48,1.20
2009,10,12,01,49,1.20
2009,10,12,01,50,1.20
2009,10,12,01,51,1.20
2009,10,12,01,52,1.10
2009,10,12,01,53,1.10
2009,10,12,01,54,1.10
2009,10,12,01,55,1.10
2009,10,12,01,56,1.10
2009,10,12,01,57,1.00
2009,10,12,01,58,1.00
2009,10,12,01,59,1.00
2009,10,12,02,00,1.00
2009,10,12,02,01,1.00
2009,10,12,02,02,1.00
2009,10,12,02,03,1.10
2009,10,12,02,04,1.10
2009,10,12,02,05,1.10
2009,10,12,02,06,1.10
2009,10,12,02,07,1.10
2009,10,12,02,08,1.10
2009,10,12,02,09,1.20
2009,10,12,02,10,1.20
2009,10,12,02,11,1.20
2009,10,12,02,12,1.30
2009,10,12,02,13,1.30
2009,10,12,02,14,1.30
2009,10,12,02,15,1.30
2009,10,12,02,16,1.40
2009,10,12,02,17,1.40
2009,10,12,02,18,1.40
2009,10,12,02,19,1.40
2009,10,12,02,20,1.40
2009,10,12,02,21,1.30
2009,10,12,02,22,1.30
2009,10,12,02,23,1.30
2009,10,12,02,24,1.30
2009,10,12,02,25,1.30
2009,10,12,02,26,1.30
2009,10,12,02,27,1.30
2009,10,12,02,28,1.30
2009,10,12,02,29,1.30
2009,10,12,02,30,1.30
2009,10,12,02,31,1.30
2009,10,12,02,32,1.30
2009,10,12,02,33,1.30
2009,10,12,02,34,1.30
2009,10,12,02,35,1.30
2009,10,12,02,36,1.30
2009,10,12,02,37,1.30
2009,10,12,02,38,1.30
2009,10,12,02,39,1.30
2009,10,12,02,40,1.30
2009,10,12,02,41,1.30
2009,10,12,02,42,1.30
2009,10,12,02,43,1.30
2009,10,12,02,44,1.30
2009,10,12,02,45,1.30
2009,10,12,02,46,1.30
2009,10,12,02,47,1.30
2009,10,12,02,48,1.30
2009,10,12,02,49,1.30
2009,10,12,02,50,1.30
2009,10,12,02,51,1.30
2009,10,12,02,52,1.30
2009,10,12,02,53,1.30
2009,10,12,02,54,1.30
2009,10,12,02,55,1.20
2009,10,12,02,56,1.20
2009,10,12,02,57,1.20
2009,10,12,02,58,1.20
2009,10,12,02,59,1.20
2009,10,12,03,00,1.20
2009,10,12,03,01,1.20
2009,10,12,03,02,1.20
2009,10,12,03,03,1.20
2009,10,12,03,04,1.20
2009,10,12,03,05,1.20
2009,10,12,03,06,1.20
2009,10,12,03,07,1.20
2009,10,12,03,08,1.20
2009,10,12,03,09,1.20
2009,10,12,03,10,1.20
2009,10,12,03,11,1.20
2009,10,12,03,12,1.20
2009,10,12,03,13,1.20
2009,10,12,03,14,1.20
2009,10,12,03,15,1.20
2009,10,12,03,16,1.20
2009,10,12,03,17,1.10
2009,10,12,03,18,1.10
2009,10,12,03,19,1.10
2009,10,12,03,20,1.10
2009,10,12,03,21,1.10
2009,10,12,03,22,1.10
2009,10,12,03,23,1.10
2009,10,12,03,24,1.10
2009,10,12,03,25,1.00
2009,10,12,03,26,1.00
2009,10,12,03,27,0.90
2009,10,12,03,28,0.90
2009,10,12,03,29,0.80
2009,10,12,03,30,0.80
2009,10,12,03,31,0.80
2009,10,12,03,32,0.80
2009,10,12,03,33,0.70
2009,10,12,03,34,0.70
2009,10,12,03,35,0.70
2009,10,12,03,36,0.70
2009,10,12,03,37,0.70
2009,10,12,03,38,0.70
2009,10,12,03,39,0.70
2009,10,12,03,40,0.70
2009,10,12,03,41,0.70
2009,10,12,03,42,0.70
2009,10,12,03,43,0.70
2009,10,12,03,44,0.70
2009,10,12,03,45,0.70
2009,10,12,03,46,0.70
2009,10,12,03,47,0.70
2009,10,12,03,48,0.70
2009,10,12,03,49,0.80
2009,10,12,03,50,0.80
2009,10,12,03,51,0.80
2009,10,12,03,52,0.80
2009,10,12,03,53,0.80
2009,10,12,03,54,0.80
2009,10,12,03,55,0.80
2009,10,12,03,56,0.80
2009,10,12,03,57,0.80
2009,10,12,03,58,0.80
2009,10,12,03,59,0.80
2009,10,12,04,00,0.80
2009,10,12,04,01,0.90
2009,10,12,04,02,0.90
2009,10,12,04,03,0.90
2009,10,12,04,04,1.00
2009,10,12,04,05,1.00
2009,10,12,04,06,1.10
2009,10,12,04,07,1.10
2009,10,12,04,08,1.20
2009,10,12,04,09,1.20
2009,10,12,04,10,1.30
2009,10,12,04,11,1.30
2009,10,12,04,12,1.30
2009,10,12,04,13,1.20
2009,10,12,04,14,1.20
2009,10,12,04,15,1.20
2009,10,12,04,16,1.10
2009,10,12,04,17,1.10
2009,10,12,04,18,1.00
2009,10,12,04,19,1.00
2009,10,12,04,20,0.90
2009,10,12,04,21,0.90
2009,10,12,04,22,0.90
2009,10,12,04,23,0.90
2009,10,12,04,24,0.90
2009,10,12,04,25,0.90
2009,10,12,04,26,0.90
2009,10,12,04,27,0.90
2009,10,12,04,28,0.90
2009,10,12,04,29,0.90
2009,10,12,04,30,0.90
2009,10,12,04,31,1.00
2009,10,12,04,32,1.00
2009,10,12,04,33,1.10
2009,10,12,04,34,1.10
2009,10,12,04,35,1.10
2009,10,12,04,36,1.10
2009,10,12,04,37,1.10
2009,10,12,04,38,1.10
2009,10,12,04,39,1.10
2009,10,12,04,40,1.10
2009,10,12,04,41,1.10
2009,10,12,04,42,1.10
2009,10,12,04,43,1.20
2009,10,12,04,44,1.10
2009,10,12,04,45,1.10
2009,10,12,04,46,1.10
2009,10,12,04,47,1.00
2009,10,12,04,48,1.00
2009,10,12,04,49,0.90
2009,10,12,04,50,0.80
2009,10,12,04,51,0.80
2009,10,12,04,52,0.70
2009,10,12,04,53,0.70
2009,10,12,04,54,0.70
2009,10,12,04,55,0.70
2009,10,12,04,56,0.60
2009,10,12,04,57,0.60
2009,10,12,04,58,0.60
2009,10,12,04,59,0.60
2009,10,12,05,00,0.50
2009,10,12,05,01,0.50
2009,10,12,05,02,0.40
2009,10,12,05,03,0.40
2009,10,12,05,04,0.30
2009,10,12,05,05,0.30
2009,10,12,05,06,0.30
2009,10,12,05,07,0.30
2009,10,12,05,08,0.30
2009,10,12,05,09,0.30
2009,10,12,05,10,0.30
2009,10,12,05,11,0.30
2009,10,12,05,12,0.30
2009,10,12,05,13,0.30
2009,10,12,05,14,0.30
2009,10,12,05,15,0.30
2009,10,12,05,16,0.30
2009,10,12,05,17,0.30
2009,10,12,05,18,0.30
2009,10,12,05,19,0.40
2009,10,12,05,20,0.40
2009,10,12,05,21,0.40
2009,10,12,05,22,0.40
2009,10,12,05,23,0.40
2009,10,12,05,24,0.40
2009,10,12,05,25,0.40
2009,10,12,05,26,0.40
2009,10,12,05,27,0.40
2009,10,12,05,28,0.40
2009,10,12,05,29,0.40
2009,10,12,05,30,0.50
2009,10,12,05,31,0.60
2009,10,12,05,32,0.60
2009,10,12,05,33,0.70
2009,10,12,05,34,0.70
2009,10,12,05,35,0.70
2009,10,12,05,36,0.70
2009,10,12,05,37,0.70
2009,10,12,05,38,0.70
2009,10,12,05,39,0.70
2009,10,12,05,40,0.70
2009,10,12,05,41,0.70
2009,10,12,05,42,0.70
2009,10,12,05,43,0.70
2009,10,12,05,44,0.70
2009,10,12,05,45,0.70
2009,10,12,05,46,0.70
2009,10,12,05,47,0.70
2009,10,12,05,48,0.70
2009,10,12,05,49,0.70
2009,10,12,05,50,0.70
2009,10,12,05,51,0.70
2009,10,12,05,52,0.60
2009,10,12,05,53,0.60
2009,10,12,05,54,0.50
2009,10,12,05,55,0.40
2009,10,12,05,56,0.30
2009,10,12,05,57,0.30
2009,10,12,05,58,0.20
2009,10,12,05,59,0.10
2009,10,12,06,00,0.10
2009,10,12,06,01,0.10
2009,10,12,06,02,0.10
2009,10,12,06,03,0.10
2009,10,12,06,04,0.10
2009,10,12,06,05,0.10
2009,10,12,06,06,0.20
2009,10,12,06,07,0.20
2009,10,12,06,08,0.20
2009,10,12,06,09,0.20
2009,10,12,06,10,0.20
2009,10,12,06,11,0.30
2009,10,12,06,12,0.30
2009,10,12,06,13,0.40
2009,10,12,06,14,0.40
2009,10,12,06,15,0.50
2009,10,12,06,16,0.60
2009,10,12,06,17,0.60
2009,10,12,06,18,0.60
2009,10,12,06,19,0.60
2009,10,12,06,20,0.50
2009,10,12,06,21,0.50
2009,10,12,06,22,0.50
2009,10,12,06,23,0.50
2009,10,12,06,24,0.40
2009,10,12,06,25,0.40
2009,10,12,06,26,0.40
2009,10,12,06,27,0.40
2009,10,12,06,28,0.30
2009,10,12,06,29,0.30
2009,10,12,06,30,0.20
2009,10,12,06,31,0.20
2009,10,12,06,32,0.20
2009,10,12,06,33,0.20
2009,10,12,06,34,0.10
2009,10,12,06,35,0.10
2009,10,12,06,36,0.10
2009,10,12,06,37,0.10
2009,10,12,06,38,0.10
2009,10,12,06,39,0.10
2009,10,12,06,40,0.10
2009,10,12,06,41,0.10
2009,10,12,06,42,0.10
2009,10,12,06,43,0.20
2009,10,12,06,44,0.20
2009,10,12,06,45,0.20
2009,10,12,06,46,0.20
2009,10,12,06,47,0.20
2009,10,12,06,48,0.30
2009,10,12,06,49,0.30
2009,10,12,06,50,0.40
2009,10,12,06,51,0.50
2009,10,12,06,52,0.60
2009,10,12,06,53,0.70
2009,10,12,06,54,0.70
2009,10,12,06,55,0.80
2009,10,12,06,56,0.80
2009,10,12,06,57,0.90
2009,10,12,06,58,0.90
2009,10,12,06,59,0.90
2009,10,12,07,00,0.90
2009,10,12,07,01,1.00
2009,10,12,07,02,1.00
2009,10,12,07,03,1.00
2009,10,12,07,04,1.00
2009,10,12,07,05,1.00
2009,10,12,07,06,1.00
2009,10,12,07,07,1.00
2009,10,12,07,08,1.00
2009,10,12,07,09,1.00
2009,10,12,07,10,1.10
2009,10,12,07,11,1.10
2009,10,12,07,12,1.10
2009,10,12,07,13,1.10
2009,10,12,07,14,1.20
2009,10,12,07,15,1.20
2009,10,12,07,16,1.30
2009,10,12,07,17,1.30
2009,10,12,07,18,1.30
2009,10,12,07,19,1.30
2009,10,12,07,20,1.30
2009,10,12,07,21,1.40
2009,10,12,07,22,1.50
2009,10,12,07,23,1.50
2009,10,12,07,24,1.60
2009,10,12,07,25,1.50
2009,10,12,07,26,1.50
2009,10,12,07,27,1.50
2009,10,12,07,28,1.40
2009,10,12,07,29,1.40
2009,10,12,07,30,1.40
2009,10,12,07,31,1.40
2009,10,12,07,32,1.40
2009,10,12,07,33,1.50
2009,10,12,07,34,1.60
2009,10,12,07,35,1.70
2009,10,12,07,36,1.70
2009,10,12,07,37,1.80
2009,10,12,07,38,1.90
2009,10,12,07,39,1.90
2009,10,12,07,40,2.00
2009,10,12,07,41,2.00
2009,10,12,07,42,2.00
2009,10,12,07,43,2.10
2009,10,12,07,44,2.10
2009,10,12,07,45,2.10
2009,10,12,07,46,2.10
2009,10,12,07,47,2.10
2009,10,12,07,48,2.00
2009,10,12,07,49,2.00
2009,10,12,07,50,2.00
2009,10,12,07,51,1.90
2009,10,12,07,52,1.90
2009,10,12,07,53,1.90
2009,10,12,07,54,1.90
2009,10,12,07,55,1.90
2009,10,12,07,56,1.90
2009,10,12,07,57,1.90
2009,10,12,07,58,2.00
2009,10,12,07,59,2.10
2009,10,12,08,00,2.20
2009,10,12,08,01,2.20
2009,10,12,08,02,2.30
2009,10,12,08,03,2.50
2009,10,12,08,04,2.50
2009,10,12,08,05,2.60
2009,10,12,08,06,2.60
2009,10,12,08,07,2.70
2009,10,12,08,08,2.70
2009,10,12,08,09,2.70
2009,10,12,08,10,2.70
2009,10,12,08,11,2.70
2009,10,12,08,12,2.70
2009,10,12,08,13,2.70
2009,10,12,08,14,2.70
2009,10,12,08,15,2.70
2009,10,12,08,16,2.70
2009,10,12,08,17,2.80
2009,10,12,08,18,2.80
2009,10,12,08,19,2.90
2009,10,12,08,20,2.90
2009,10,12,08,21,3.00
2009,10,12,08,22,3.00
2009,10,12,08,23,3.00
2009,10,12,08,24,3.00
2009,10,12,08,25,3.00
2009,10,12,08,26,3.00
2009,10,12,08,27,3.00
2009,10,12,08,28,3.00
2009,10,12,08,29,3.00
2009,10,12,08,30,3.00
2009,10,12,08,31,3.00
2009,10,12,08,32,3.00
2009,10,12,08,33,3.00
2009,10,12,08,34,3.00
2009,10,12,08,35,3.00
2009,10,12,08,36,3.00
2009,10,12,08,37,3.00
2009,10,12,08,38,3.00
2009,10,12,08,39,3.10
2009,10,12,08,40,3.10
2009,10,12,08,41,3.10
2009,10,12,08,42,3.20
2009,10,12,08,43,3.20
2009,10,12,08,44,3.20
2009,10,12,08,45,3.20
2009,10,12,08,46,3.20
2009,10,12,08,47,3.30
2009,10,12,08,48,3.30
2009,10,12,08,49,3.30
2009,10,12,08,50,3.30
2009,10,12,08,51,3.40
2009,10,12,08,52,3.40
2009,10,12,08,53,3.50
2009,10,12,08,54,3.50
2009,10,12,08,55,3.60
2009,10,12,08,56,3.60
2009,10,12,08,57,3.70
2009,10,12,08,58,3.70
2009,10,12,08,59,3.70
2009,10,12,09,00,3.70
2009,10,12,09,01,3.80
2009,10,12,09,02,3.80
2009,10,12,09,03,3.80
2009,10,12,09,04,3.90
2009,10,12,09,05,4.00
2009,10,12,09,06,4.00
2009,10,12,09,07,4.10
2009,10,12,09,08,4.20
2009,10,12,09,09,4.20
2009,10,12,09,10,4.30
2009,10,12,09,11,4.30
2009,10,12,09,12,4.50
2009,10,12,09,13,4.60
2009,10,12,09,14,4.70
2009,10,12,09,15,4.70
2009,10,12,09,16,4.80
2009,10,12,09,17,4.90
2009,10,12,09,18,5.00
2009,10,12,09,19,5.10
2009,10,12,09,20,5.20
2009,10,12,09,21,5.30
2009,10,12,09,22,5.40
2009,10,12,09,23,5.40
2009,10,12,09,24,5.40
2009,10,12,09,25,5.40
2009,10,12,09,26,5.40
2009,10,12,09,27,5.50
2009,10,12,09,28,5.50
2009,10,12,09,29,5.60
2009,10,12,09,30,5.60
2009,10,12,09,31,5.60
2009,10,12,09,32,5.70
2009,10,12,09,33,5.70
2009,10,12,09,34,5.70
2009,10,12,09,35,5.80
2009,10,12,09,36,5.90
2009,10,12,09,37,5.90
2009,10,12,09,38,6.00
2009,10,12,09,39,6.10
2009,10,12,09,40,6.20
2009,10,12,09,41,6.20
2009,10,12,09,42,6.30
2009,10,12,09,43,6.30
2009,10,12,09,44,6.40
2009,10,12,09,45,6.40
2009,10,12,09,46,6.40
2009,10,12,09,47,6.50
2009,10,12,09,48,6.50
2009,10,12,09,49,6.60
2009,10,12,09,50,6.60
2009,10,12,09,51,6.60
2009,10,12,09,52,6.70
2009,10,12,09,53,6.70
2009,10,12,09,54,6.70
2009,10,12,09,55,6.70
2009,10,12,09,56,6.70
2009,10,12,09,57,6.80
2009,10,12,09,58,6.80
2009,10,12,09,59,6.80
2009,10,12,10,00,6.80
2009,10,12,10,01,6.80
2009,10,12,10,02,6.90
2009,10,12,10,03,6.90
2009,10,12,10,04,6.90
2009,10,12,10,05,6.90
2009,10,12,10,06,6.90
2009,10,12,10,07,6.90
2009,10,12,10,08,7.00
2009,10,12,10,09,7.00
2009,10,12,10,10,7.00
2009,10,12,10,11,7.00
2009,10,12,10,12,7.10
2009,10,12,10,13,7.10
2009,10,12,10,14,7.10
2009,10,12,10,15,7.10
2009,10,12,10,16,7.20
2009,10,12,10,17,7.20
2009,10,12,10,18,7.20
2009,10,12,10,19,7.20
2009,10,12,10,20,7.20
2009,10,12,10,21,7.20
2009,10,12,10,22,7.20
2009,10,12,10,23,7.20
2009,10,12,10,24,7.20
2009,10,12,10,25,7.20
2009,10,12,10,26,7.20
2009,10,12,10,27,7.20
2009,10,12,10,28,7.20
2009,10,12,10,29,7.20
2009,10,12,10,30,7.30
2009,10,12,10,31,7.30
2009,10,12,10,32,7.30
2009,10,12,10,33,7.40
2009,10,12,10,34,7.40
2009,10,12,10,35,7.50
2009,10,12,10,36,7.60
2009,10,12,10,37,7.60
2009,10,12,10,38,7.60
2009,10,12,10,39,7.70
2009,10,12,10,40,7.70
2009,10,12,10,41,7.70
2009,10,12,10,42,7.80
2009,10,12,10,43,7.80
2009,10,12,10,44,7.80
2009,10,12,10,45,7.80
2009,10,12,10,46,7.80
2009,10,12,10,47,7.80
2009,10,12,10,48,7.90
2009,10,12,10,49,7.90
2009,10,12,10,50,8.00
2009,10,12,10,51,8.00
2009,10,12,10,52,8.10
2009,10,12,10,53,8.10
2009,10,12,10,54,8.10
2009,10,12,10,55,8.10
2009,10,12,10,56,8.20
2009,10,12,10,57,8.20
2009,10,12,10,58,8.30
2009,10,12,10,59,8.30
2009,10,12,11,00,8.30
2009,10,12,11,01,8.20
2009,10,12,11,02,8.30
2009,10,12,11,03,8.30
2009,10,12,11,04,8.30
2009,10,12,11,05,8.30
2009,10,12,11,06,8.30
2009,10,12,11,07,8.40
2009,10,12,11,08,8.40
2009,10,12,11,09,8.30
2009,10,12,11,10,8.30
2009,10,12,11,11,8.40
2009,10,12,11,12,8.40
2009,10,12,11,13,8.50
2009,10,12,11,14,8.60
2009,10,12,11,15,8.60
2009,10,12,11,16,8.60
2009,10,12,11,17,8.60
2009,10,12,11,18,8.60
2009,10,12,11,19,8.60
2009,10,12,11,20,8.60
2009,10,12,11,21,8.60
2009,10,12,11,22,8.60
2009,10,12,11,23,8.60
2009,10,12,11,24,8.60
2009,10,12,11,25,8.60
2009,10,12,11,26,8.60
2009,10,12,11,27,8.60
2009,10,12,11,28,8.60
2009,10,12,11,29,8.60
2009,10,12,11,30,8.70
2009,10,12,11,31,8.70
2009,10,12,11,32,8.80
2009,10,12,11,33,8.80
2009,10,12,11,34,8.80
2009,10,12,11,35,8.90
2009,10,12,11,36,8.90
2009,10,12,11,37,8.80
2009,10,12,11,38,8.80
2009,10,12,11,39,8.80
2009,10,12,11,40,8.80
2009,10,12,11,41,8.80
2009,10,12,11,42,8.80
2009,10,12,11,43,8.80
2009,10,12,11,44,8.80
2009,10,12,11,45,8.70
2009,10,12,11,46,8.70
2009,10,12,11,47,8.70
2009,10,12,11,48,8.70
2009,10,12,11,49,8.70
2009,10,12,11,50,8.70
2009,10,12,11,51,8.70
2009,10,12,11,52,8.70
2009,10,12,11,53,8.60
2009,10,12,11,54,8.70
2009,10,12,11,55,8.70
2009,10,12,11,56,8.80
2009,10,12,11,57,8.80
2009,10,12,11,58,8.90
2009,10,12,11,59,8.90
2009,10,12,12,00,8.90
2009,10,12,12,01,9.00
2009,10,12,12,02,9.10
2009,10,12,12,03,9.10
2009,10,12,12,04,9.10
2009,10,12,12,05,9.10
2009,10,12,12,06,9.10
2009,10,12,12,07,9.10
2009,10,12,12,08,9.10
2009,10,12,12,09,9.10
2009,10,12,12,10,9.10
2009,10,12,12,11,9.10
2009,10,12,12,12,9.10
2009,10,12,12,13,9.20
2009,10,12,12,14,9.20
2009,10,12,12,15,9.30
2009,10,12,12,16,9.30
2009,10,12,12,17,9.30
2009,10,12,12,18,9.30
2009,10,12,12,19,9.30
2009,10,12,12,20,9.30
2009,10,12,12,21,9.30
2009,10,12,12,22,9.30
2009,10,12,12,23,9.30
2009,10,12,12,24,9.30
2009,10,12,12,25,9.30
2009,10,12,12,26,9.30
2009,10,12,12,27,9.30
2009,10,12,12,28,9.40
2009,10,12,12,29,9.40
2009,10,12,12,30,9.50
2009,10,12,12,31,9.50
2009,10,12,12,32,9.50
2009,10,12,12,33,9.60
2009,10,12,12,34,9.60
2009,10,12,12,35,9.60
2009,10,12,12,36,9.70
2009,10,12,12,37,9.80
2009,10,12,12,38,9.80
2009,10,12,12,39,9.80
2009,10,12,12,40,9.70
2009,10,12,12,41,9.80
2009,10,12,12,42,9.80
2009,10,12,12,43,9.80
2009,10,12,12,44,9.70
2009,10,12,12,45,9.60
2009,10,12,12,46,9.60
2009,10,12,12,47,9.60
2009,10,12,12,48,9.60
2009,10,12,12,49,9.60
2009,10,12,12,50,9.60
2009,10,12,12,51,9.60
2009,10,12,12,52,9.60
2009,10,12,12,53,9.60
2009,10,12,12,54,9.50
2009,10,12,12,55,9.50
2009,10,12,12,56,9.50
2009,10,12,12,57,9.60
2009,10,12,12,58,9.60
2009,10,12,12,59,9.50
2009,10,12,13,00,9.40
2009,10,12,13,01,9.40
2009,10,12,13,02,9.40
2009,10,12,13,03,9.40
2009,10,12,13,04,9.40
2009,10,12,13,05,9.40
2009,10,12,13,06,9.50
2009,10,12,13,07,9.50
2009,10,12,13,08,9.50
2009,10,12,13,09,9.50
2009,10,12,13,10,9.50
2009,10,12,13,11,9.50
2009,10,12,13,12,9.40
2009,10,12,13,13,9.40
2009,10,12,13,14,9.40
2009,10,12,13,15,9.40
2009,10,12,13,16,9.50
2009,10,12,13,17,9.60
2009,10,12,13,18,9.60
2009,10,12,13,19,9.60
2009,10,12,13,20,9.60
2009,10,12,13,21,9.60
2009,10,12,13,22,9.60
2009,10,12,13,23,9.60
2009,10,12,13,24,9.60
2009,10,12,13,25,9.60
2009,10,12,13,26,9.60
2009,10,12,13,27,9.60
2009,10,12,13,28,9.60
2009,10,12,13,29,9.60
2009,10,12,13,30,9.60
2009,10,12,13,31,9.50
2009,10,12,13,32,9.50
2009,10,12,13,33,9.50
2009,10,12,13,34,9.40
2009,10,12,13,35,9.50
2009,10,12,13,36,9.40
2009,10,12,13,37,9.50
2009,10,12,13,38,9.50
2009,10,12,13,39,9.50
2009,10,12,13,40,9.50
2009,10,12,13,41,9.60
2009,10,12,13,42,9.60
2009,10,12,13,43,9.60
2009,10,12,13,44,9.70
2009,10,12,13,45,9.70
2009,10,12,13,46,9.70
2009,10,12,13,47,9.70
2009,10,12,13,48,9.70
2009,10,12,13,49,9.80
2009,10,12,13,50,9.70
2009,10,12,13,51,9.70
2009,10,12,13,52,9.70
2009,10,12,13,53,9.70
2009,10,12,13,54,9.80
2009,10,12,13,55,9.80
2009,10,12,13,56,9.80
2009,10,12,13,57,9.80
2009,10,12,13,58,9.70
2009,10,12,13,59,9.70
2009,10,12,14,00,9.70
2009,10,12,14,01,9.60
2009,10,12,14,02,9.60
2009,10,12,14,03,9.60
2009,10,12,14,04,9.60
2009,10,12,14,05,9.60
2009,10,12,14,06,9.50
2009,10,12,14,07,9.50
2009,10,12,14,08,9.60
2009,10,12,14,09,9.60
2009,10,12,14,10,9.60
2009,10,12,14,11,9.60
2009,10,12,14,12,9.50
2009,10,12,14,13,9.50
2009,10,12,14,14,9.60
2009,10,12,14,15,9.60
2009,10,12,14,16,9.60
2009,10,12,14,17,9.60
2009,10,12,14,18,9.60
2009,10,12,14,19,9.60
2009,10,12,14,20,9.60
2009,10,12,14,21,9.70
2009,10,12,14,22,9.70
2009,10,12,14,23,9.70
2009,10,12,14,24,9.70
2009,10,12,14,25,9.70
2009,10,12,14,26,9.70
2009,10,12,14,27,9.70
2009,10,12,14,28,9.70
2009,10,12,14,29,9.70
2009,10,12,14,30,9.70
2009,10,12,14,31,9.70
2009,10,12,14,32,9.70
2009,10,12,14,33,9.70
2009,10,12,14,34,9.70
2009,10,12,14,35,9.70
2009,10,12,14,36,9.70
2009,10,12,14,37,9.70
2009,10,12,14,38,9.70
2009,10,12,14,39,9.70
2009,10,12,14,40,9.70
2009,10,12,14,41,9.70
2009,10,12,14,42,9.70
2009,10,12,14,43,9.70
2009,10,12,14,44,9.70
2009,10,12,14,45,9.70
2009,10,12,14,46,9.70
2009,10,12,14,47,9.70
2009,10,12,14,48,9.70
2009,10,12,14,49,9.80
2009,10,12,14,50,9.80
2009,10,12,14,51,9.80
2009,10,12,14,52,9.80
2009,10,12,14,53,9.80
2009,10,12,14,54,9.80
2009,10,12,14,55,9.80
2009,10,12,14,56,9.80
2009,10,12,14,57,9.80
2009,10,12,14,58,9.80
2009,10,12,14,59,9.80
2009,10,12,15,00,9.80
2009,10,12,15,01,9.80
2009,10,12,15,02,9.80
2009,10,12,15,03,9.80
2009,10,12,15,04,9.80
2009,10,12,15,05,9.70
2009,10,12,15,06,9.70
2009,10,12,15,07,9.70
2009,10,12,15,08,9.70
2009,10,12,15,09,9.70
2009,10,12,15,10,9.80
2009,10,12,15,11,9.80
2009,10,12,15,12,9.80
2009,10,12,15,13,9.80
2009,10,12,15,14,9.90
2009,10,12,15,15,9.90
2009,10,12,15,16,9.80
2009,10,12,15,17,9.80
2009,10,12,15,18,9.80
2009,10,12,15,19,9.80
2009,10,12,15,20,9.80
2009,10,12,15,21,9.90
2009,10,12,15,22,9.90
2009,10,12,15,23,9.90
2009,10,12,15,24,9.90
2009,10,12,15,25,9.90
2009,10,12,15,26,9.90
2009,10,12,15,27,9.90
2009,10,12,15,28,10.00
2009,10,12,15,29,9.90
2009,10,12,15,30,9.90
2009,10,12,15,31,9.90
2009,10,12,15,32,9.90
2009,10,12,15,33,9.90
2009,10,12,15,34,9.90
2009,10,12,15,35,9.90
2009,10,12,15,36,9.90
2009,10,12,15,37,9.90
2009,10,12,15,38,9.90
2009,10,12,15,39,9.90
2009,10,12,15,40,9.90
2009,10,12,15,41,9.90
2009,10,12,15,42,9.90
2009,10,12,15,43,9.90
2009,10,12,15,44,9.80
2009,10,12,15,45,9.80
2009,10,12,15,46,9.80
2009,10,12,15,47,9.80
2009,10,12,15,48,9.80
2009,10,12,15,49,9.80
2009,10,12,15,50,9.80
2009,10,12,15,51,9.80
2009,10,12,15,52,9.80
2009,10,12,15,53,9.80
2009,10,12,15,54,9.80
2009,10,12,15,55,9.80
2009,10,12,15,56,9.80
2009,10,12,15,57,9.80
2009,10,12,15,58,9.80
2009,10,12,15,59,9.80
2009,10,12,16,00,9.80
2009,10,12,16,01,9.80
2009,10,12,16,02,9.80
2009,10,12,16,03,9.80
2009,10,12,16,04,9.80
2009,10,12,16,05,9.80
2009,10,12,16,06,9.90
2009,10,12,16,07,9.90
2009,10,12,16,08,9.90
2009,10,12,16,09,9.90
2009,10,12,16,10,9.90
2009,10,12,16,11,9.90
2009,10,12,16,12,9.90
2009,10,12,16,13,9.90
2009,10,12,16,14,9.90
2009,10,12,16,15,9.90
2009,10,12,16,16,10.00
2009,10,12,16,17,10.00
2009,10,12,16,18,10.00
2009,10,12,16,19,10.00
2009,10,12,16,20,9.90
2009,10,12,16,21,9.90
2009,10,12,16,22,9.90
2009,10,12,16,23,9.90
2009,10,12,16,24,10.00
2009,10,12,16,25,10.00
2009,10,12,16,26,10.00
2009,10,12,16,27,10.10
2009,10,12,16,28,10.10
2009,10,12,16,29,10.10
2009,10,12,16,30,10.10
2009,10,12,16,31,10.10
2009,10,12,16,32,10.10
2009,10,12,16,33,10.00
2009,10,12,16,34,10.00
2009,10,12,16,35,9.90
2009,10,12,16,36,9.90
2009,10,12,16,37,9.90
2009,10,12,16,38,9.90
2009,10,12,16,39,9.90
2009,10,12,16,40,9.90
2009,10,12,16,41,9.90
2009,10,12,16,42,9.90
2009,10,12,16,43,9.90
2009,10,12,16,44,9.90
2009,10,12,16,45,9.90
2009,10,12,16,46,9.90
2009,10,12,16,47,9.90
2009,10,12,16,48,9.90
2009,10,12,16,49,9.90
2009,10,12,16,50,9.90
2009,10,12,16,51,9.90
2009,10,12,16,52,9.90
2009,10,12,16,53,9.90
2009,10,12,16,54,9.90
2009,10,12,16,55,9.90
2009,10,12,16,56,9.90
2009,10,12,16,57,9.90
2009,10,12,16,58,9.90
2009,10,12,16,59,9.90
2009,10,12,17,00,9.90
2009,10,12,17,01,9.90
2009,10,12,17,02,9.90
2009,10,12,17,03,9.90
2009,10,12,17,04,9.90
2009,10,12,17,05,9.90
2009,10,12,17,06,9.90
2009,10,12,17,07,9.90
2009,10,12,17,08,9.90
2009,10,12,17,09,10.00
2009,10,12,17,10,9.90
2009,10,12,17,11,9.90
2009,10,12,17,12,9.90
2009,10,12,17,13,9.90
2009,10,12,17,14,9.90
2009,10,12,17,15,9.90
2009,10,12,17,16,9.90
2009,10,12,17,17,9.90
2009,10,12,17,18,9.90
2009,10,12,17,19,9.90
2009,10,12,17,20,9.90
2009,10,12,17,21,9.90
2009,10,12,17,22,9.90
2009,10,12,17,23,9.90
2009,10,12,17,24,9.90
2009,10,12,17,25,9.90
2009,10,12,17,26,9.90
2009,10,12,17,27,9.90
2009,10,12,17,28,9.90
2009,10,12,17,29,9.90
2009,10,12,17,30,9.90
2009,10,12,17,31,9.90
2009,10,12,17,32,9.80
2009,10,12,17,33,9.80
2009,10,12,17,34,9.80
2009,10,12,17,35,9.80
2009,10,12,17,36,9.80
2009,10,12,17,37,9.80
2009,10,12,17,38,9.80
2009,10,12,17,39,9.80
2009,10,12,17,40,9.80
2009,10,12,17,41,9.70
2009,10,12,17,42,9.70
2009,10,12,17,43,9.70
2009,10,12,17,44,9.70
2009,10,12,17,45,9.70
2009,10,12,17,46,9.70
2009,10,12,17,47,9.70
2009,10,12,17,48,9.70
2009,10,12,17,49,9.70
2009,10,12,17,50,9.70
2009,10,12,17,51,9.70
2009,10,12,17,52,9.60
2009,10,12,17,53,9.60
2009,10,12,17,54,9.60
2009,10,12,17,55,9.60
2009,10,12,17,56,9.60
2009,10,12,17,57,9.60
2009,10,12,17,58,9.60
2009,10,12,17,59,9.60
2009,10,12,18,00,9.60
2009,10,12,18,01,9.60
2009,10,12,18,02,9.60
2009,10,12,18,03,9.60
2009,10,12,18,04,9.60
2009,10,12,18,05,9.60